This demonstration page uses our WeatherBlox Daily Observations layout. Learn more.

Left ArrowRight Arrow

36.19886, -115.1175

Hourly Observations for December 1, 2021

Temp ( °F °C ) Dew Point ( °F °C ) Humidity (%) Winds ( mph kmh ) Pressure ( in mb ) Visibility ( mi km ) Precip ( " mm )
12:53 am 00:53 Clear 60 15.6 19 -7.2 20 20 NNW 8 13 30.21 1023 10 16 0.00 0.00
1:53 am 01:53 Clear 59 15 18 -7.8 20 20 NNW 8 13 30.22 1023 10 16 0.00 0.00
2:53 am 02:53 Clear 60 15.6 18 -7.8 19 19 NW 13 20 30.21 1023 10 16 0.00 0.00
3:53 am 03:53 Clear 59 15 17 -8.3 19 19 N 12 19 30.22 1023 10 16 0.00 0.00
4:53 am 04:53 Clear 58 14.4 17 -8.3 20 20 NW 13 20 30.24 1024 10 16 0.00 0.00
5:53 am 05:53 Clear 57 13.9 17 -8.3 21 21 NW 10 17 30.26 1025 10 16 0.00 0.00
6:53 am 06:53 Sunny 54 12.2 17 -8.3 23 23 NNW 9 15 30.29 1026 10 16 0.00 0.00
7:53 am 07:53 Sunny 59 15 18 -7.8 20 20 NNW 9 15 30.29 1026 10 16 0.00 0.00
8:53 am 08:53 Sunny 63 17.2 18 -7.8 17 17 N 8 13 30.29 1026 10 16 0.00 0.00
9:53 am 09:53 Sunny 67 19.4 18 -7.8 15 15 Calm 30.29 1026 10 16 0.00 0.00
10:53 am 10:53 Sunny 70 21.1 19 -7.2 14 14 ESE 6 9 30.26 1025 10 16 0.00 0.00
11:53 am 11:53 Sunny 72 22.2 18 -7.8 13 13 E 3 6 30.24 1024 10 16 0.00 0.00
12:53 pm 12:53 Sunny 74 23.3 18 -7.8 12 12 ESE 3 6 30.20 1023 10 16 0.00 0.00
1:53 pm 13:53 Sunny 75 23.9 17 -8.3 11 11 Calm 30.18 1022 10 16 0.00 0.00
2:53 pm 14:53 Sunny 76 24.4 17 -8.3 11 11 S 3 6 30.16 1021 10 16 0.00 0.00
3:53 pm 15:53 Sunny 75 23.9 17 -8.3 11 11 S 3 6 30.16 1021 10 16 0.00 0.00
4:53 pm 16:53 Clear 70 21.1 19 -7.2 14 14 Calm 30.16 1021 10 16 0.00 0.00
5:53 pm 17:53 Clear 65 18.3 23 -5 20 20 NW 6 9 30.17 1022 10 16 0.00 0.00
6:53 pm 18:53 Clear 61 16.1 23 -5 23 23 WNW 5 7 30.18 1022 10 16 0.00 0.00
7:53 pm 19:53 Clear 59 15 22 -5.6 24 24 W 7 11 30.17 1022 10 16 0.00 0.00
8:53 pm 20:53 Clear 60 15.6 17 -8.3 19 19 W 7 11 30.17 1022 10 16 0.00 0.00
9:53 pm 21:53 Clear 61 16.1 16 -8.9 17 17 Calm 30.19 1022 10 16 0.00 0.00
10:53 pm 22:53 Clear 56 13.3 19 -7.2 24 24 W 5 7 30.20 1023 10 16 0.00 0.00
11:53 pm 23:53 Clear 52 11.1 21 -6.1 30 30 NW 5 7 30.20 1023 10 16 0.00 0.00

Powered by AerisWeather